Location: Peterborough
(44.3091°N, 78.3197°W)
Time: 05:59:28
(UTC-04:00)

Vanguard 3 - Pass Details

Date: 23 February 2024
Orbit: 510 x 3236 km, 33.3° (Epoch: 12 April)

Event Time Altitude Azimuth Distance (km) Brightness Sun altitude
Rises 00:26:14 0° 263° (W) 7,151 11.9 -55.7°
Reaches altitude 10° 00:31:27 10° 259° (W) 5,985 11.4 -55.7°
Enters shadow 00:32:02 11° 259° (WSW) 5,853 11.3 -55.7°
Maximum altitude 00:48:14 52° 191° (S) 2,758 - -55.4°
Drops below altitude 10° 00:58:43 10° 119° (ESE) 3,868 - -55.0°
Sets 01:01:21 0° 114° (ESE) 4,546 - -54.9°
